Location: Breckenridge
(39.4820°N, 106.0380°W)
Time: 20:10:03
(UTC-06:00)

Envisat - Visible Passes

Search period start: 20 October 2019 00:00
Search period end: 30 October 2019 00:00
Orbit: 764 x 766 km, 98.1° (Epoch: 20 October)

Date Brightness Start Highest point End Pass type
(mag) Time Alt. Az. Time Alt. Az. Time Alt. Az.
20 Oct 4.6 19:50:35 10° SSW 19:55:13 36° W 19:59:54 10° NNW visible
21 Oct 3.1 19:13:18 10° SSE 19:18:22 84° WSW 19:23:28 10° NNW visible
22 Oct 3.3 18:36:57 10° SE 18:41:42 43° ENE 18:46:30 10° N visible
22 Oct 5.5 20:17:09 10° SW 20:20:53 21° W 20:24:40 10° NW visible
23 Oct 6.2 06:48:00 10° NE 06:51:03 16° E 06:54:06 10° SE visible
23 Oct 4.1 19:39:04 10° S 19:43:55 46° W 19:48:48 10° NNW visible
24 Oct 2.9 19:02:04 10° SSE 19:07:07 77° ENE 19:12:12 10° N visible
24 Oct 6.2 20:45:14 10° WSW 20:46:40 11° W 20:48:07 10° WNW visible
25 Oct 5.2 20:05:21 10° SSW 20:09:33 26° W 20:13:46 10° NW visible
26 Oct 6.5 06:37:39 10° ENE 06:39:40 12° E 06:41:40 10° ESE visible
26 Oct 3.6 19:27:38 10° S 19:32:37 60° W 19:37:38 10° NNW visible
27 Oct 3.0 18:50:55 10° SSE 18:55:53 60° ENE 19:00:53 10° N visible
27 Oct 6.0 20:32:32 10° SW 20:35:17 15° W 20:38:03 10° WNW visible
28 Oct 5.9 07:01:29 10° NE 07:05:25 22° E 07:09:20 10° SE visible
28 Oct 4.7 19:53:40 10° SSW 19:58:13 33° W 20:02:47 10° NNW visible
29 Oct 3.2 19:16:17 10° S 19:21:20 77° WSW 19:26:26 10° NNW visible
